South Bend, IN

6:05 PM EDT on April 26, 2017 (GMT -0400)
South Bend Regional

Weather History for KSBN - March, 2012

Change the Weather History Date:

Friday, March 30, 2012

  Actual Average Record
Temperature  
Mean Temperature 45 °F 43 °F  
Max Temperature 48 °F 53 °F 77 °F (1967)
Min Temperature 41 °F 33 °F 11 °F (1954)
Degree Days  
Heating Degree Days 20 22  
Month to date heating degree days 396 833  
Since 1 July heating degree days 4479 5522  
Cooling Degree Days 0 0  
Month to date cooling degree days 44 0  
Year to date cooling degree days 44 0  
Moisture  
Dew Point 39 °F    
Average Humidity 79    
Maximum Humidity 92    
Minimum Humidity 65    
Precipitation  
Precipitation 0.30 in 0.08 in 1.27 in (2017)
Month to date precipitation 1.67 2.33  
Year to date precipitation 6.94 6.57  
Snow  
Snow 0.00 in 0.10 in 8.00 in (1899)
Month to date snowfall 1.5 7.0  
Since 1 July snowfall 51.2 65.1  
Snow Depth 0.00 in    
Sea Level Pressure  
Sea Level Pressure 29.82 in    
Wind  
Wind Speed 12 mph (ENE)    
Max Wind Speed 24 mph    
Max Gust Speed 30 mph    
Visibility 7 miles    
Events Rain , Thunderstorm    
T = Trace of Precipitation, MM = Missing Value Source: NWS Daily Summary

Daily Weather History Graph

Daily Weather History Graph

Search for Another Location

Airport or City:

Trip Planner

Search our weather history database for the weather conditions in past years. The results will help you decide how hot, cold, wet, or windy it might be!

Date:

Astronomy

Mar. 30, 2012 Rise Set
Actual Time 7:30 AM EDT 8:09 PM EDT
Civil Twilight 7:02 AM EDT 8:37 PM EDT
Nautical Twilight 6:29 AM EDT 9:10 PM EDT
Astronomical Twilight 5:55 AM EDT 9:44 PM EDT
Moon 12:32 PM EDT (3/30) 2:49 AM EDT (3/30)
Length of Visible Light 13h 34m
Length of Day
12h 38m
Waxing Crescent, 49% of the Moon is Illuminated
Mar 30
Waxing Crescent
Mar 30
First Quarter
Apr 6
Full
Apr 13
Last Quarter
Apr 21
New

Hourly Weather History & Observations

Time (EDT) Temp. Windchill Dew Point Humidity Pressure Visibility Wind Dir Wind Speed Gust Speed Precip Events Conditions
12:54 AM 46.0 °F 40.6 °F 35.1 °F 66% 30.01 in 10.0 mi East 11.5 mph - N/A   Clear
1:54 AM 45.0 °F 38.2 °F 35.1 °F 68% 30.01 in 10.0 mi ESE 15.0 mph - N/A   Overcast
2:54 AM 42.1 °F 33.3 °F 33.1 °F 70% 29.99 in 9.0 mi ESE 19.6 mph 24.2 mph N/A   Clear
3:54 AM 41.0 °F 32.8 °F 32.0 °F 70% 29.97 in 10.0 mi ESE 16.1 mph - N/A   Clear
4:54 AM 41.0 °F 32.5 °F 33.1 °F 73% 29.95 in 10.0 mi ESE 17.3 mph - N/A   Mostly Cloudy
5:54 AM 41.0 °F 32.5 °F 34.0 °F 76% 29.91 in 10.0 mi ESE 17.3 mph 26.5 mph 0.00 in Rain Light Rain
6:54 AM 41.0 °F 33.1 °F 33.8 °F 76% 29.88 in 10.0 mi ESE 15.0 mph - N/A   Overcast
7:54 AM 41.0 °F 31.9 °F 34.0 °F 76% 29.87 in 9.0 mi SE 19.6 mph - N/A   Partly Cloudy
8:54 AM 43.0 °F 34.2 °F 35.1 °F 74% 29.82 in 10.0 mi ESE 20.7 mph 28.8 mph N/A   Clear
9:54 AM 44.1 °F 35.7 °F 36.0 °F 73% 29.81 in 10.0 mi SE 20.7 mph - 0.00 in Rain Light Rain
10:06 AM 44.6 °F 36.9 °F 37.4 °F 76% 29.79 in 10.0 mi SE 18.4 mph 26.5 mph 0.00 in Rain , Thunderstorm Light Thunderstorms and Rain
10:38 AM 42.8 °F 39.3 °F 37.4 °F 81% 29.81 in 1.8 mi ENE 5.8 mph 16.1 mph 0.10 in Rain , Thunderstorm Light Thunderstorms and Rain
10:42 AM 42.8 °F 38.6 °F 37.4 °F 81% 29.81 in 4.0 mi East 6.9 mph - 0.10 in Rain , Thunderstorm Light Thunderstorms and Rain
10:54 AM 44.1 °F 40.8 °F 39.0 °F 82% 29.83 in 4.0 mi ENE 5.8 mph - 0.10 in Rain , Thunderstorm Light Thunderstorms and Rain
11:26 AM 44.6 °F 38.8 °F 39.2 °F 81% 29.79 in 6.0 mi ESE 11.5 mph - 0.12 in Rain Light Rain
11:54 AM 44.1 °F 38.1 °F 41.0 °F 89% 29.78 in 7.0 mi East 11.5 mph - 0.12 in Rain Light Rain
12:54 PM 45.0 °F 39.7 °F 41.0 °F 86% 29.75 in 8.0 mi East 10.4 mph - 0.00 in   Overcast
1:15 PM 44.6 °F 41.4 °F 41.0 °F 87% 29.74 in 8.0 mi East 5.8 mph - 0.00 in Rain Light Rain
1:54 PM 46.0 °F 43.1 °F 42.1 °F 86% 29.73 in 6.0 mi East 5.8 mph - 0.00 in   Overcast
2:03 PM 46.4 °F 41.9 °F 42.8 °F 87% 29.71 in 4.0 mi ENE 9.2 mph - 0.01 in Rain Light Rain
2:04 PM 46.4 °F 42.4 °F 42.8 °F 87% 29.72 in 4.0 mi ENE 8.1 mph - 0.02 in Rain , Thunderstorm Thunderstorms and Rain
2:05 PM 46.4 °F 42.9 °F 42.8 °F 87% 29.72 in 4.0 mi NE 6.9 mph - 0.03 in Rain , Thunderstorm Thunderstorms and Rain
2:54 PM 45.0 °F 39.3 °F 42.1 °F 90% 29.75 in 6.0 mi NNE 11.5 mph - 0.08 in   Overcast
3:54 PM 45.0 °F 41.2 °F 42.1 °F 90% 29.74 in 6.0 mi ENE 6.9 mph - N/A   Overcast
4:18 PM 46.4 °F 42.9 °F 42.8 °F 87% 29.74 in 7.0 mi ENE 6.9 mph - N/A   Overcast
4:41 PM 48.2 °F - 42.8 °F 82% 29.75 in 7.0 mi NE 8.1 mph - N/A   Overcast
4:54 PM 48.0 °F - 43.0 °F 83% 29.77 in 7.0 mi NE 4.6 mph - N/A   Overcast
5:54 PM 48.0 °F - 43.0 °F 83% 29.79 in 7.0 mi North 4.6 mph - N/A   Overcast
6:19 PM 48.2 °F - 42.8 °F 82% 29.78 in 6.0 mi North 5.8 mph - N/A   Haze
6:54 PM 46.9 °F - 43.0 °F 86% 29.80 in 6.0 mi North 10.4 mph - N/A   Overcast
7:20 PM 46.4 °F 42.4 °F 42.8 °F 87% 29.79 in 5.0 mi North 8.1 mph - N/A   Overcast
7:54 PM 46.0 °F 43.1 °F 41.0 °F 83% 29.83 in 5.0 mi North 5.8 mph - N/A   Haze
8:54 PM 44.1 °F 40.1 °F 41.0 °F 89% 29.86 in 4.0 mi NNE 6.9 mph - N/A   Overcast
9:54 PM 44.1 °F 40.1 °F 39.9 °F 85% 29.88 in 5.0 mi NNE 6.9 mph - N/A   Overcast
10:54 PM 42.1 °F 37.7 °F 39.0 °F 89% 29.88 in 4.0 mi NNE 6.9 mph - N/A   Overcast
11:54 PM 41.0 °F 35.2 °F 37.9 °F 89% 29.90 in 5.0 mi NNE 9.2 mph - N/A   Overcast